| time (UTC) | temp C | wind direction | speed KPH | gust KPH | rain 1hr cm | rain 24hr cm | rain mn cm | humidity % | barometer mb |
| 20260505031611 | 25 | 233 | 0.0 | 1.6 | 0.00 | 0.00 | 0.00 | 36 | 1005.8 |
| 20260505031002 | 25 | 228 | 0.0 | 1.6 | 0.00 | 0.00 | 0.00 | 34 | 1005.7 |
| 20260505030602 | 26 | 167 | 0.0 | 1.6 | 0.00 | 0.00 | 0.00 | 34 | 1005.7 |
| 20260505030003 | 26 | 247 | 0.0 | 1.6 | 0.00 | 0.00 | 0.00 | 35 | 1005.7 |
| 20260505025604 | 26 | 248 | 0.0 | 3.2 | 0.00 | 0.00 | 0.00 | 34 | 1005.7 |
| 20260505025002 | 27 | 245 | 0.0 | 3.2 | 0.00 | 0.00 | 0.00 | 29 | 1005.7 |
| 20260505024604 | 27 | 72 | 0.0 | 0.0 | 0.00 | 0.00 | 0.00 | 32 | 1005.7 |
| 20260505024005 | 27 | 73 | 0.0 | 1.6 | 0.00 | 0.00 | 0.00 | 30 | 1005.7 |
| 20260505023604 | 28 | 71 | 0.0 | 1.6 | 0.00 | 0.00 | 0.00 | 31 | 1005.7 |
| 20260505023003 | 28 | 71 | 0.0 | 1.6 | 0.00 | 0.00 | 0.00 | 30 | 1005.8 |
| 20260505022603 | 28 | 71 | 0.0 | 0.0 | 0.00 | 0.00 | 0.00 | 30 | 1005.8 |
| 20260505022006 | 29 | 71 | 0.0 | 1.6 | 0.00 | 0.00 | 0.00 | 29 | 1005.7 |
| 20260505021604 | 30 | 72 | 0.0 | 1.6 | 0.00 | 0.00 | 0.00 | 28 | 1005.8 |
| 20260505021002 | 30 | 72 | 0.0 | 1.6 | 0.00 | 0.00 | 0.00 | 26 | 1005.8 |
| 20260505020603 | 30 | 71 | 0.0 | 1.6 | 0.00 | 0.00 | 0.00 | 26 | 1005.8 |
| 20260505020005 | 30 | 31 | 0.0 | 3.2 | 0.00 | 0.00 | 0.00 | 27 | 1005.8 |
| 20260505015604 | 30 | 329 | 0.0 | 3.2 | 0.00 | 0.00 | 0.00 | 28 | 1005.9 |
| 20260505015003 | 31 | 97 | 0.0 | 1.6 | 0.00 | 0.00 | 0.00 | 25 | 1005.9 |
| 20260505014608 | 31 | 57 | 0.0 | 3.2 | 0.00 | 0.00 | 0.00 | 28 | 1005.9 |
| 20260505014003 | 31 | 27 | 0.0 | 3.2 | 0.00 | 0.00 | 0.00 | 28 | 1006.0 |
| 20260505013603 | 32 | 26 | 1.6 | 3.2 | 0.00 | 0.00 | 0.00 | 26 | 1006.0 |
| 20260505013002 | 32 | 327 | 0.0 | 1.6 | 0.00 | 0.00 | 0.00 | 21 | 1005.9 |
| 20260505012603 | 32 | 328 | 0.0 | 1.6 | 0.00 | 0.00 | 0.00 | 20 | 1006.0 |
| 20260505012003 | 32 | 309 | 0.0 | 1.6 | 0.00 | 0.00 | 0.00 | 21 | 1006.0 |
| 20260505011603 | 31 | 309 | 0.0 | 1.6 | 0.00 | 0.00 | 0.00 | 21 | 1006.1 |
| 20260505011002 | 31 | 25 | 0.0 | 6.4 | 0.00 | 0.00 | 0.00 | 23 | 1006.1 |
| 20260505010603 | 31 | 13 | 1.6 | 6.4 | 0.00 | 0.00 | 0.00 | 24 | 1006.2 |
| 20260505005603 | 32 | 278 | 3.2 | 8.0 | 0.00 | 0.00 | 0.00 | 22 | 1006.2 |
| 20260505005003 | 31 | 87 | 0.0 | 9.7 | 0.00 | 0.00 | 0.00 | 22 | 1006.2 |
| 20260505004603 | 31 | 111 | 0.0 | 8.0 | 0.00 | 0.00 | 0.00 | 22 | 1006.1 |
| 20260505004002 | 32 | 94 | 0.0 | 3.2 | 0.00 | 0.00 | 0.00 | 23 | 1006.0 |
| 20260505003603 | 32 | 99 | 0.0 | 3.2 | 0.00 | 0.00 | 0.00 | 23 | 1006.0 |
| 20260505003002 | 32 | 101 | 0.0 | 3.2 | 0.00 | 0.00 | 0.00 | 23 | 1006.1 |
| 20260505002603 | 32 | 128 | 0.0 | 4.8 | 0.00 | 0.00 | 0.00 | 23 | 1006.1 |
| 20260505002003 | 32 | 78 | 0.0 | 6.4 | 0.00 | 0.00 | 0.00 | 22 | 1006.1 |
| 20260505001602 | 32 | 355 | 1.6 | 8.0 | 0.00 | 0.00 | 0.00 | 21 | 1006.2 |
| 20260505001003 | 32 | 295 | 1.6 | 8.0 | 0.00 | 0.00 | 0.00 | 21 | 1006.2 |
| 20260505000603 | 32 | 265 | 0.0 | 1.6 | 0.00 | 0.00 | 0.00 | 21 | 1006.2 |
| 20260505000008 | 32 | 14 | 0.0 | 3.2 | 0.00 | 0.00 | 0.00 | 22 | 1006.2 |
| 20260504235603 | 32 | 37 | 0.0 | 4.8 | 0.00 | 0.00 | 0.00 | 22 | 1006.3 |
| 20260504235003 | 32 | 91 | 1.6 | 6.4 | 0.00 | 0.00 | 0.00 | 22 | 1006.3 |
| 20260504234603 | 32 | 118 | 0.0 | 4.8 | 0.00 | 0.00 | 0.00 | 21 | 1006.2 |
| 20260504234006 | 32 | 306 | 0.0 | 6.4 | 0.00 | 0.00 | 0.00 | 21 | 1006.3 |
| 20260504233603 | 32 | 285 | 1.6 | 6.4 | 0.00 | 0.00 | 0.00 | 22 | 1006.3 |
| 20260504233003 | 32 | 263 | 0.0 | 6.4 | 0.00 | 0.00 | 0.00 | 22 | 1006.4 |
| 20260504232603 | 32 | 266 | 1.6 | 8.0 | 0.00 | 0.00 | 0.00 | 21 | 1006.5 |
| 20260504232003 | 32 | 213 | 1.6 | 6.4 | 0.00 | 0.00 | 0.00 | 22 | 1006.4 |
| 20260504231602 | 33 | 96 | 1.6 | 6.4 | 0.00 | 0.00 | 0.00 | 21 | 1006.5 |
| 20260504231002 | 33 | 28 | 0.0 | 3.2 | 0.00 | 0.00 | 0.00 | 22 | 1006.7 |
| 20260504230605 | 33 | 234 | 0.0 | 3.2 | 0.00 | 0.00 | 0.00 | 22 | 1006.7 |
| 20260504230004 | 33 | 140 | 0.0 | 6.4 | 0.00 | 0.00 | 0.00 | 21 | 1006.8 |
| 20260504225603 | 32 | 236 | 0.0 | 6.4 | 0.00 | 0.00 | 0.00 | 22 | 1006.9 |
| 20260504225002 | 32 | 141 | 0.0 | 8.0 | 0.00 | 0.00 | 0.00 | 22 | 1006.9 |
| 20260504224602 | 32 | 148 | 1.6 | 8.0 | 0.00 | 0.00 | 0.00 | 23 | 1006.9 |
| 20260504224002 | 32 | 252 | 0.0 | 6.4 | 0.00 | 0.00 | 0.00 | 23 | 1006.9 |
| 20260504223604 | 31 | 242 | 0.0 | 6.4 | 0.00 | 0.00 | 0.00 | 23 | 1007.0 |
| 20260504223003 | 31 | 173 | 1.6 | 6.4 | 0.00 | 0.00 | 0.00 | 23 | 1007.0 |
| 20260504222604 | 31 | 218 | 0.0 | 8.0 | 0.00 | 0.00 | 0.00 | 23 | 1007.0 |
| 20260504222002 | 31 | 343 | 3.2 | 8.0 | 0.00 | 0.00 | 0.00 | 23 | 1007.1 |
| 20260504221604 | 31 | 307 | 3.2 | 11.3 | 0.00 | 0.00 | 0.00 | 23 | 1007.1 |
| 20260504221002 | 31 | 22 | 0.0 | 11.3 | 0.00 | 0.00 | 0.00 | 22 | 1007.2 |
| 20260504220606 | 31 | 138 | 0.0 | 4.8 | 0.00 | 0.00 | 0.00 | 23 | 1007.3 |
| 20260504220003 | 31 | 69 | 1.6 | 6.4 | 0.00 | 0.00 | 0.00 | 22 | 1007.4 |
| 20260504215603 | 31 | 274 | 3.2 | 6.4 | 0.00 | 0.00 | 0.00 | 25 | 1007.6 |
| 20260504215002 | 30 | 259 | 0.0 | 11.3 | 0.00 | 0.00 | 0.00 | 23 | 1007.6 |
| 20260504214607 | 30 | 84 | 3.2 | 11.3 | 0.00 | 0.00 | 0.00 | 25 | 1007.7 |
| 20260504214007 | 30 | 328 | 3.2 | 9.7 | 0.00 | 0.00 | 0.00 | 25 | 1007.7 |
| 20260504213603 | 30 | 82 | 1.6 | 9.7 | 0.00 | 0.00 | 0.00 | 24 | 1007.8 |
| 20260504213003 | 30 | 343 | 1.6 | 6.4 | 0.00 | 0.00 | 0.00 | 26 | 1007.9 |
| 20260504212603 | 30 | 292 | 1.6 | 6.4 | 0.00 | 0.00 | 0.00 | 26 | 1007.9 |
| 20260504212008 | 30 | 280 | 1.6 | 6.4 | 0.00 | 0.00 | 0.00 | 28 | 1008.1 |
| 20260504211606 | 30 | 319 | 3.2 | 6.4 | 0.00 | 0.00 | 0.00 | 28 | 1008.2 |
| 20260504211003 | 29 | 60 | 0.0 | 8.0 | 0.00 | 0.00 | 0.00 | 29 | 1008.2 |
| 20260504210605 | 29 | 79 | 0.0 | 8.0 | 0.00 | 0.00 | 0.00 | 29 | 1008.2 |
| 20260504210003 | 30 | 302 | 3.2 | 6.4 | 0.00 | 0.00 | 0.00 | 30 | 1008.4 |
| 20260504205603 | 30 | 22 | 0.0 | 6.4 | 0.00 | 0.00 | 0.00 | 29 | 1008.4 |
| 20260504205003 | 29 | 297 | 0.0 | 4.8 | 0.00 | 0.00 | 0.00 | 31 | 1008.4 |
| 20260504204630 | 29 | 144 | 0.0 | 8.0 | 0.00 | 0.00 | 0.00 | 30 | 1008.4 |
| 20260504204005 | 29 | 288 | 3.2 | 8.0 | 0.00 | 0.00 | 0.00 | 29 | 1008.7 |
| 20260504203603 | 29 | 288 | 1.6 | 4.8 | 0.00 | 0.00 | 0.00 | 29 | 1008.6 |
| 20260504203003 | 29 | 250 | 1.6 | 6.4 | 0.00 | 0.00 | 0.00 | 30 | 1008.8 |
| 20260504202604 | 28 | 241 | 0.0 | 6.4 | 0.00 | 0.00 | 0.00 | 31 | 1008.9 |
| 20260504202002 | 28 | 286 | 1.6 | 6.4 | 0.00 | 0.00 | 0.00 | 32 | 1008.9 |
| 20260504201603 | 28 | 337 | 1.6 | 8.0 | 0.00 | 0.00 | 0.00 | 33 | 1008.8 |
| 20260504201003 | 27 | 325 | 1.6 | 8.0 | 0.00 | 0.00 | 0.00 | 34 | 1008.9 |
| 20260504200602 | 27 | 291 | 1.6 | 6.4 | 0.00 | 0.00 | 0.00 | 35 | 1009.1 |
| 20260504200003 | 27 | 300 | 3.2 | 8.0 | 0.00 | 0.00 | 0.00 | 36 | 1009.1 |
| 20260504195603 | 27 | 285 | 3.2 | 8.0 | 0.00 | 0.00 | 0.00 | 35 | 1009.2 |